Date String (YYYY-MM-DD hh:mm:ss) UTC,Instrument flags,Ambient pressure (hPa),Sample flow (lpm),Bypass flow (lpm),Sample temperature (°C),Ambient temperature (°C),ASC tube jacket temperature (°C),LED temperature (°C),Box temperature (°C),Sample RH (%),Span deviation,Mass concentration (μg/m³),Mass concentration (μg/m³),Mass concentration (μg/m³)
DateTimeUTC,F1_M11,P_M11,Q1_M11,Q2_M11,T1_M11,T2_M11,T3_M11,T4_M11,T5_M11,U1_M11,ZSPAN_M11,X0_M11,X2_M11,X1_M11
2022-09-20 14:00:00,,0828.3,4.99,0.00,30.4,28.6,00.0,39.2,32.1,14.2,0000.0,0010.53,0003.09,0002.11
2022-09-20 14:01:00,,0828.3,5.00,0.00,30.4,28.7,00.0,39.2,32.1,14.2,0000.0,0010.55,0003.06,0002.10
2022-09-20 14:02:00,,0828.6,4.99,0.00,30.4,28.8,00.0,39.2,32.1,14.3,0000.0,0010.43,0003.05,0002.09
2022-09-20 14:03:00,,0828.4,5.01,0.00,30.4,28.9,00.0,39.2,32.2,14.2,0000.0,0010.76,0003.02,0002.08
2022-09-20 14:04:00,,0828.4,4.99,0.00,30.4,29.0,00.0,39.2,32.2,14.4,0000.0,0011.52,0003.06,0002.09
2022-09-20 14:05:00,,0828.4,5.00,0.00,30.4,29.0,00.0,39.2,32.2,14.5,0000.0,0010.77,0003.01,0002.09
2022-09-20 14:06:00,,0828.4,4.99,0.00,30.4,29.1,00.0,39.2,32.2,14.6,0000.0,0010.05,0002.93,0002.09
2022-09-20 14:07:00,,0828.4,5.01,0.00,30.5,29.1,00.0,39.2,32.2,14.9,0000.0,0009.10,0002.84,0002.09
2022-09-20 14:08:00,,0828.4,4.99,0.00,30.5,29.1,00.0,39.2,32.3,14.9,0000.0,0009.29,0002.84,0002.07
2022-09-20 14:09:00,,0828.4,5.00,0.00,30.5,29.2,00.0,39.2,32.3,15.1,0000.0,0009.44,0002.89,0002.08
2022-09-20 14:10:00,,0828.4,5.00,0.00,30.5,29.2,00.0,39.2,32.3,15.0,0000.0,0009.64,0002.92,0002.11
2022-09-20 14:11:00,,0828.4,4.99,0.00,30.5,29.2,00.0,39.2,32.3,15.3,0000.0,0009.77,0002.97,0002.13
2022-09-20 14:12:00,,0828.4,5.02,0.00,30.6,29.3,00.0,39.3,32.4,15.6,0000.0,0009.80,0002.99,0002.13
2022-09-20 14:13:00,,0828.4,4.99,0.00,30.6,29.3,00.0,39.3,32.4,15.4,0000.0,0009.81,0002.99,0002.11
2022-09-20 14:14:00,,0828.4,4.99,0.00,30.6,29.3,00.0,39.3,32.4,14.5,0000.0,0009.24,0002.93,0002.08
2022-09-20 14:15:00,,0828.4,5.00,0.00,30.6,28.8,00.0,39.3,32.4,14.7,0000.0,0008.10,0002.88,0002.06
2022-09-20 14:16:00,,0828.3,5.00,0.00,30.6,27.5,00.0,39.3,32.4,15.0,0000.0,0007.65,0002.77,0002.04
2022-09-20 14:17:00,,0828.5,5.00,0.00,30.6,27.1,00.0,39.2,32.3,15.3,0000.0,0007.66,0002.74,0002.02
2022-09-20 14:18:00,,0828.3,5.00,0.00,30.5,27.3,00.0,39.2,32.2,15.2,0000.0,0007.67,0002.70,0002.03
2022-09-20 14:19:00,,0828.3,5.00,0.00,30.4,27.6,00.0,39.2,32.1,14.8,0000.0,0005.97,0002.63,0002.04
2022-09-20 14:20:00,,0828.3,5.00,0.00,30.4,27.9,00.0,39.1,32.0,14.7,0000.0,0005.10,0002.60,0002.06
2022-09-20 14:21:00,,0828.3,4.99,0.00,30.4,28.2,00.0,39.1,32.0,14.7,0000.0,0004.52,0002.58,0002.06
2022-09-20 14:22:00,,0828.3,5.00,0.00,30.3,28.4,00.0,39.1,32.1,14.9,0000.0,0004.33,0002.56,0002.06
2022-09-20 14:23:00,,0828.4,5.01,0.00,30.3,28.6,00.0,39.1,32.1,14.8,0000.0,0004.41,0002.60,0002.09
2022-09-20 14:24:00,,0828.3,4.99,0.00,30.4,28.7,00.0,39.1,32.1,14.9,0000.0,0004.42,0002.60,0002.11
2022-09-20 14:25:00,,0828.4,5.01,0.00,30.4,28.7,00.0,39.1,32.1,15.2,0000.0,0004.53,0002.63,0002.13
2022-09-20 14:26:00,,0828.4,4.99,0.00,30.4,28.9,00.0,39.1,32.1,15.3,0000.0,0005.35,0002.62,0002.15
2022-09-20 14:27:00,,0828.4,5.01,0.00,30.4,28.9,00.0,39.1,32.2,15.3,0000.0,0005.61,0002.64,0002.16
2022-09-20 14:28:00,,0828.4,5.00,0.00,30.4,29.0,00.0,39.1,32.2,15.5,0000.0,0005.59,0002.66,0002.18
2022-09-20 14:29:00,,0828.4,5.00,0.00,30.4,29.1,00.0,39.1,32.2,15.2,0000.0,0005.28,0002.66,0002.18
2022-09-20 14:30:00,,0828.4,5.00,0.00,30.4,29.1,00.0,39.1,32.2,15.9,0000.0,0006.79,0002.71,0002.18
2022-09-20 14:31:00,,0828.4,5.00,0.00,30.5,29.1,00.0,39.2,32.3,15.9,0000.0,0007.53,0002.70,0002.15
2022-09-20 14:32:00,,0828.4,5.00,0.00,30.5,29.2,00.0,39.2,32.3,15.8,0000.0,0007.93,0002.70,0002.13
2022-09-20 14:33:00,,0828.4,5.00,0.00,30.5,29.3,00.0,39.2,32.3,16.2,0000.0,0008.30,0002.72,0002.12
2022-09-20 14:34:00,,0828.4,5.01,0.00,30.5,29.0,00.0,39.2,32.4,16.3,0000.0,0008.47,0002.67,0002.09
2022-09-20 14:35:00,,0828.3,5.00,0.00,30.5,27.8,00.0,39.2,32.3,16.4,0000.0,0008.31,0002.65,0002.08
2022-09-20 14:36:00,,0828.4,5.00,0.00,30.5,27.1,00.0,39.1,32.2,16.3,0000.0,0008.47,0002.66,0002.07
2022-09-20 14:37:00,,0828.3,5.00,0.00,30.5,27.3,00.0,39.1,32.2,16.3,0000.0,0009.39,0002.65,0002.05
2022-09-20 14:38:00,,0828.3,5.00,0.00,30.4,27.6,00.0,39.1,32.0,16.6,0000.0,0009.32,0002.63,0002.03
2022-09-20 14:39:00,,0828.3,5.00,0.00,30.3,27.9,00.0,39.1,32.0,16.3,0000.0,0009.69,0002.59,0002.01
2022-09-20 14:40:00,,0828.3,5.01,0.00,30.3,28.2,00.0,39.0,32.0,16.5,0000.0,0009.79,0002.56,0001.98
2022-09-20 14:41:00,,0828.3,4.99,0.00,30.3,28.4,00.0,39.0,32.0,16.3,0000.0,0009.41,0002.49,0001.96
2022-09-20 14:42:00,,0828.3,5.01,0.00,30.3,28.5,00.0,39.0,32.1,16.4,0000.0,0009.22,0002.47,0001.95
2022-09-20 14:43:00,,0828.3,4.99,0.00,30.3,28.7,00.0,39.0,32.1,16.5,0000.0,0008.80,0002.43,0001.95
2022-09-20 14:44:00,,0828.3,5.01,0.00,30.3,28.8,00.0,39.0,32.1,16.7,0000.0,0008.41,0002.40,0001.96
2022-09-20 14:45:00,,0828.3,4.99,0.00,30.4,28.9,00.0,39.1,32.2,16.3,0000.0,0008.09,0002.39,0001.96
2022-09-20 14:46:00,,0828.3,5.00,0.00,30.4,29.0,00.0,39.1,32.2,16.6,0000.0,0008.89,0002.41,0001.96
2022-09-20 14:47:00,,0828.3,5.02,0.00,30.4,29.1,00.0,39.1,32.2,16.8,0000.0,0009.46,0002.41,0001.96
2022-09-20 14:48:00,,0828.3,5.00,0.00,30.4,29.1,00.0,39.1,32.3,16.9,0000.0,0008.77,0002.38,0001.95
2022-09-20 14:49:00,,0828.3,5.00,0.00,30.4,29.2,00.0,39.1,32.3,17.1,0000.0,0008.96,0002.41,0001.96
2022-09-20 14:50:00,,0828.3,5.00,0.00,30.5,29.2,00.0,39.1,32.3,17.0,0000.0,0009.10,0002.44,0001.97
2022-09-20 14:51:00,,0828.3,5.01,0.00,30.5,28.4,00.0,39.1,32.3,17.0,0000.0,0009.17,0002.41,0001.97
2022-09-20 14:52:00,,0828.3,4.99,0.00,30.4,27.2,00.0,39.1,32.2,16.6,0000.0,0009.00,0002.44,0001.97
2022-09-20 14:53:00,,0828.3,5.00,0.00,30.4,27.1,00.0,39.0,32.1,16.1,0000.0,0008.84,0002.47,0001.99
2022-09-20 14:54:00,,0828.3,5.00,0.00,30.3,27.4,00.0,39.0,32.0,15.9,0000.0,0009.00,0002.53,0002.01
2022-09-20 14:55:00,,0828.3,5.00,0.00,30.3,27.7,00.0,39.0,32.0,16.0,0000.0,0009.63,0002.61,0002.01
2022-09-20 14:56:00,,0828.3,4.99,0.00,30.2,28.0,00.0,39.0,32.0,16.1,0000.0,0009.77,0002.63,0002.02
2022-09-20 14:57:00,,0828.3,5.01,0.00,30.2,28.2,00.0,39.0,32.0,16.5,0000.0,0009.29,0002.60,0002.02
2022-09-20 14:58:00,,0828.3,5.01,0.00,30.2,28.4,00.0,39.0,32.0,16.5,0000.0,0008.84,0002.64,0002.03
2022-09-20 14:59:00,,0828.3,5.00,0.00,30.2,28.6,00.0,39.0,32.0,16.4,0000.0,0008.26,0002.67,0002.04
